This is the latest recevied weather packets stored in our database for station/object KC1TWD. If no packets are shown the sender has not sent any weather packets the latest 10 day(s).
| Time | Temp. | Humidity | Pressure | Rain* | Wind** | Luminosity | Snow |
|---|---|---|---|---|---|---|---|
| 1778016534 | 27.22° C | 37% | 1003.6 hPa | 0 mm | - | - | - |
| 1778016232 | 27.22° C | 38% | 1003.5 hPa | 0 mm | - | - | - |
| 1778015928 | 27.78° C | 36% | 1003.3 hPa | 0 mm | - | - | - |
| 1778015626 | 27.78° C | 37% | 1003.3 hPa | 0 mm | - | - | - |
| 1778015322 | 27.78° C | 36% | 1003.3 hPa | 0 mm | - | - | - |
| 1778015019 | 28.33° C | 35% | 1003.5 hPa | 0 mm | - | - | - |
| 1778014716 | 27.78° C | 37% | 1003.3 hPa | 0 mm | - | - | - |
| 1778014414 | 28.33° C | 34% | 1003.3 hPa | 0 mm | - | - | - |
| 1778014110 | 27.78° C | 35% | 1003.2 hPa | 0 mm | - | - | - |
| 1778013809 | 28.33° C | 35% | 1003.4 hPa | 0 mm | - | - | - |
| 1778013506 | 27.78° C | 35% | 1003.2 hPa | 0 mm | - | - | - |
| 1778013202 | 27.78° C | 34% | 1003.7 hPa | 0 mm | - | - | - |
| 1778012898 | 27.78° C | 35% | 1003.3 hPa | 0 mm | - | - | - |
| 1778012595 | 27.78° C | 36% | 1003.2 hPa | 0 mm | - | - | - |
| 1778012291 | 28.33° C | 35% | 1003.4 hPa | 0 mm | - | - | - |
| 1778011989 | 28.89° C | 34% | 1003.3 hPa | 0 mm | - | - | - |
| 1778011687 | 28.33° C | 34% | 1003.4 hPa | 0 mm | - | - | - |
| 1778011384 | 28.33° C | 35% | 1003.6 hPa | 0 mm | - | - | - |
| 1778011079 | 27.78° C | 36% | 1003.7 hPa | 0 mm | - | - | - |
| 1778010777 | 27.78° C | 35% | 1003.6 hPa | 0 mm | - | - | - |
| 1778010474 | 27.78° C | 34% | 1003.7 hPa | 0 mm | - | - | - |
| 1778010170 | 28.33° C | 35% | 1003.9 hPa | 0 mm | - | - | - |
| 1778009866 | 28.89° C | 35% | 1003.7 hPa | 0 mm | - | - | - |
| 1778009564 | 28.89° C | 33% | 1003.8 hPa | 0 mm | - | - | - |
| 1778009262 | 29.44° C | 35% | 1003.8 hPa | 0 mm | - | - | - |
* Rain latest hour (hover to see other rain measurements)
** Current wind speed in m/s (hover to see current wind gust speed)